Change the Weather History Date:

Tuesday, September 3, 2013

  Actual Average Record
Temperature  
Mean Temperature 58 °F -  
Max Temperature 69 °F 57 °F 69 °F (2013)
Min Temperature 46 °F 39 °F 32 °F (2014)
Degree Days  
Heating Degree Days 8    
Growing Degree Days 8 (Base 50)    
Moisture  
Dew Point 47 °F    
Average Humidity 73    
Maximum Humidity 93    
Minimum Humidity 40    
Precipitation  
Precipitation 0.08 in - - ()
Sea Level Pressure  
Sea Level Pressure 29.32 in    
Wind  
Wind Speed 4 mph (NE)    
Max Wind Speed 13 mph    
Max Gust Speed -    
Visibility 10 miles    
Events Rain    
Averages and records for this station are not official NWS values.
T = Trace of Precipitation, MM = Missing Value Source: NWS Daily Summary

Daily Weather History Graph

Daily Weather History Graph

Search for Another Location

Airport or City:

Trip Planner

Search our weather history database for the weather conditions in past years. The results will help you decide how hot, cold, wet, or windy it might be!

Date:

Astronomy

Sep. 03, 2013 Rise Set
Actual Time 6:37 AM AKDT 8:59 PM AKDT
Civil Twilight 5:43 AM AKDT 9:53 PM AKDT
Nautical Twilight 4:28 AM AKDT 11:06 PM AKDT
Astronomical Twilight 2:22 AM AKDT 1:28 AM AKDT
Moon 4:44 AM AKDT (9/3) 7:54 PM AKDT (9/3)
Length of Visible Light 16h 09m
Length of Day
14h 21m
Waning Crescent, 3% of the Moon is Illuminated
Sep 3
Waning Crescent
Sep 5
New
Sep 12
First Quarter
Sep 19
Full
Sep 26
Last Quarter

Hourly Weather History & Observations

Time (AKDT) Temp. Dew Point Humidity Pressure Visibility Wind Dir Wind Speed Gust Speed Precip Events Conditions
12:56 AM 53.1 °F 48.9 °F 86% 29.42 in 10.0 mi North 4.6 mph - N/A   Overcast
1:56 AM 53.1 °F 48.9 °F 86% 29.42 in 10.0 mi WNW 3.5 mph - N/A   Scattered Clouds
2:56 AM 51.1 °F 48.0 °F 89% 29.42 in 10.0 mi North 3.5 mph - N/A   Mostly Cloudy
3:56 AM 51.1 °F 46.9 °F 86% 29.40 in 10.0 mi Calm Calm - N/A   Partly Cloudy
4:56 AM 48.9 °F 46.0 °F 90% 29.41 in 10.0 mi Calm Calm - N/A   Scattered Clouds
5:56 AM 46.9 °F 45.0 °F 93% 29.41 in 10.0 mi Calm Calm - N/A   Clear
6:30 AM 48.2 °F 44.6 °F 87% 29.39 in 10.0 mi Calm Calm - N/A   Overcast
6:55 AM 48.2 °F 46.4 °F 93% 29.41 in 10.0 mi Calm Calm - N/A   Overcast
7:55 AM 50.0 °F 44.6 °F 82% 29.39 in 10.0 mi Calm Calm - N/A   Mostly Cloudy
8:55 AM 50.0 °F 46.4 °F 87% 29.38 in 10.0 mi East 5.8 mph - N/A   Mostly Cloudy
9:45 AM 51.8 °F 46.4 °F 82% 29.37 in 10.0 mi East 5.8 mph - N/A Rain Light Rain Showers
9:55 AM 51.8 °F 46.4 °F 82% 29.37 in 10.0 mi East 5.8 mph - N/A Rain Light Rain Showers
11:30 AM 57.2 °F 46.4 °F 67% 29.31 in 10.0 mi East 9.2 mph - N/A   Mostly Cloudy
11:55 AM 59.0 °F 46.4 °F 63% 29.32 in 10.0 mi East 6.9 mph - N/A Rain Light Rain
12:55 PM 60.8 °F 44.6 °F 55% 29.29 in 10.0 mi ENE 9.2 mph - N/A   Mostly Cloudy
1:55 PM 66.2 °F 44.6 °F 46% 29.26 in 10.0 mi ENE 10.4 mph - N/A   Mostly Cloudy
2:55 PM 69.8 °F 46.4 °F 43% 29.24 in 10.0 mi ENE 10.4 mph - N/A   Mostly Cloudy
3:55 PM 69.8 °F 44.6 °F 40% 29.23 in 13.0 mi East 9.2 mph - N/A   Mostly Cloudy
4:55 PM 68.0 °F 46.4 °F 46% 29.22 in 13.0 mi Calm Calm - N/A   Mostly Cloudy
5:55 PM 68.0 °F 48.2 °F 49% 29.20 in 13.0 mi Calm Calm - N/A   Mostly Cloudy
6:55 PM 66.2 °F 51.8 °F 60% 29.20 in 13.0 mi Calm Calm - N/A   Mostly Cloudy
7:55 PM 60.8 °F 55.4 °F 82% 29.20 in 10.0 mi Calm Calm - N/A   Mostly Cloudy
8:15 PM 62.6 °F 53.6 °F 72% 29.21 in 7.0 mi SW 3.5 mph - N/A Rain Light Rain
8:55 PM 57.2 °F 51.8 °F 82% 29.30 in 7.0 mi WSW 12.7 mph - N/A Rain Light Rain Showers
9:43 PM 55.4 °F 48.2 °F 77% 29.28 in 7.0 mi Calm Calm - N/A   Overcast
9:55 PM 57.2 °F 48.2 °F 72% 29.29 in 7.0 mi West 2.3 mph - N/A   Overcast
10:56 PM 57.0 °F 46.9 °F 69% 29.31 in 10.0 mi WNW 5.8 mph - 0.00 in   Overcast
11:56 PM 55.0 °F 46.0 °F 72% 29.36 in 10.0 mi WNW 3.5 mph - 0.00 in   Overcast